sat.trackr.live / text

‹ back to catalog

STARLINK-31057

NORAD 58545 · 2023-192Q

PAYLOAD ACTIVE UNKNOWN

§ Identity

Operator
Country
US
Launch date
2023-12-08
Launch site
AFWTR
Launch vehicle
Mass (kg)
RCS (m²)

Purposes: comms

External: N2YO · Heavens-Above · Gunter

§ Orbital elements

Epoch: 2026-05-25T03:58:33.024864Z

Period
93.85 min
Inclination
53.1604°
Eccentricity
0.0001455
Mean motion
15.34398003 rev/d
Perigee alt
461.7 km
Apogee alt
463.7 km
Semi-major
6,840.8 km
B*
8.5855e-5
RAAN
66.8483°
Arg perigee
99.8828°
Mean anomaly
260.2339°
Rev number
13,770

§ Raw data

STARLINK-310571 58545U 23192Q   26145.16566001  .00002525  00000+0  85855-4 0  99952 58545  53.1604  66.8483 0001455  99.8828 260.2339 15.34398003137701

JSON: /api/v1/satellites/58545 · /tle

For live sub-satellite position, see the globe view (requires WebGL).

§ Visibility from observer

Set your observer location to see the next 7 days of passes ≥ 10°. The values pass through the URL so the page stays shareable.

No JS? Fill the form by hand. The geolocation button needs JavaScript.